Погода в Большемечетном

Россия / Ростовская область     47°30′32″N   41°03′49″E
темп.,
°C
ветер,
м/с
пор.,
м/с
влажн.,
%
обл.,
%
осадки,
мм/ч
давл.,
гПа
погр.,
м
7 марта, вс
вс700:00−2ссз51176100 0.0 1020601
03:00−3сз5107650 0.0 1023504
06:00−5з35790 0.0 1025187
09:00−2зюз57660 0.0 1025633
12:00+1зюз69530 0.0 10241454
15:00+2зюз7104812 0.0 10221616
18:000зюз612600 0.0 1020551
21:00−1юз614640 0.0 1019656
8 марта, пн
пн800:00−1юз715691 0.0 1018718
03:00−1зюз715691 0.0 1017692
06:00−1зюз614690 0.0 1016653
09:00+2зюз9136523 0.0 1016960
12:00+5зюз913540 0.0 10151589
15:00+6зюз9125436 0.0 10141615
18:00+2зюз5117393 0.0 1013325
21:000юз5127781 0.0 1013352
9 марта, вт
вт900:000зюз6139270 0.0 1012638
03:00+1зюз6109785 0.3 1012521
06:00+1з61089100 0.9 1012623
09:00+1зсз6967100 1.0 10141163
12:00+3зсз67491 0.0 10151786
15:00+4з7104733 0.1 10151920
18:00+1зсз596069 0.1 10161018
21:00−1сз596653 0.1 1019838
10 марта, ср
ср1000:00−2сз47640 0.0 1020939
03:00−3сз566427 0.0 10211037
06:00−4ссз565879 0.0 1023954
09:00−3ссз455040 0.0 1025928
12:00−1ссз44320 0.0 10251274
15:000с443117 0.0 10241271
18:00−2ссв3643100 0.0 1024329
21:00−4св5747100 0.0 1025579
11 марта, чт
чт1100:00−5всв5852100 0.0 1026661
03:00−6всв584370 0.0 1026661
06:00−7всв69441 0.0 1027636
09:00−7всв710401 0.0 1028674
12:00−4всв78290 0.0 10281010
15:00−3всв78290 0.0 10271255
18:00−5всв57340 0.0 10281240
21:00−7всв67340 0.0 10301070